Temp
37 37 34 32 31 32 30 33 27 32 32 30 23 25 28 32 34 35 36 37 38 38 38 39 39 40 40 40 39 39 37 38 39 38 36 37 37 37 35 34 35 35 33 33
25 31 32 29 31 31 32 32 32 32 29 26 28 32 32 33 31 32 34 36 38 38 38 38 39 38 38 38 37 36 35 35 37 36 36 33 36 36 33 33 33 32 32 32
21 28 26 20 27 30 32 36 28 23 21 23 24 29 32 33 31 32 31 32 35 35 36 36 38 38 36 36 35 34 34 35 34 34 33 34 31 30 31 31 32 31 31 31
20 17 12 26 28 28 25 24 25 23 20 23 26 30 32 32 31 31 33 34 35 35 34 34 35 35 35 35 34 33 33 32 32 31 31 30 27 29 28 29 30 30 30 30
12 7 20 27 24 23 23 21 25 25 28 27 28 27 29 34 33 31 31 33 33 32 31 32 31 33 32 30 32 33 33 32 31 30 29 28 25 26 27 28 29 30 30 29
10 8 1 19 27 29 27 13 20 23 23 23 24 17 24 32 31 31 34 31 30 29 28 28 29 31 28 27 28 29 31 31 29 27 25 25 23 22 24 27 28 28 27 28
5 2 8 19 23 28 7 12 18 22 24 23 20 23 29 31 28 28 28 28 28 27 27 28 29 28 25 25 25 27 26 26 30 28 25 24 25 20 22 23 22 21 21 24
-6 -6 0 24 24 17 21 24 24 26 28 27 28 29 28 27 28 27 26 26 27 25 25 27 26 24 23 22 25 24 24 24 25 28 26 24 22 21 21 22 20 18 18 17
11 10 26 28 26 32 28 24 26 27 29 28 27 27 27 25 25 26 25 25 25 21 21 24 22 20 18 20 20 19 19 20 21 24 28 23 22 21 20 20 19 16 17 16
21 26 27 30 33 30 31 31 31 29 28 27 25 25 23 23 23 23 23 21 21 19 17 17 19 19 17 17 16 14 14 14 16 18 21 25 22 23 20 20 19 19 17 18
20 27 28 30 31 33 33 32 27 26 25 24 22 21 21 20 20 20 20 19 18 16 15 15 16 15 14 13 11 9 10 11 12 15 17 22 22 22 21 23 23 20 20 20
18 29 28 30 33 29 27 26 22 20 19 21 20 19 19 17 18 17 16 16 14 13 12 11 10 9 9 9 7 6 5 7 9 12 14 18 21 21 26 26 26 28 27 23
27 32 31 32 25 23 21 19 20 18 18 16 17 16 15 13 14 13 12 10 9 7 7 6 5 4 5 5 4 3 2 4 6 8 11 14 19 18 17 21 28 28 28 28
24 23 26 24 20 18 18 17 15 14 13 13 13 11 10 8 8 6 5 5 5 3 2 2 1 1 3 3 2 2 2 3 4 6 9 12 16 18 17 17 16 21 28 28
15 16 16 15 16 14 13 11 8 8 10 8 9 7 5 3 2 2 2 2 2 1 1 1 0 0 3 2 1 1 1 2 4 7 10 12 15 18 16 16 17 18 20 25
10 10 9 8 8 8 6 5 3 5 5 5 3 2 2 1 -0 -0 1 2 -0 -1 -0 -0 -0 1 2 2 2 1 2 3 5 6 7 9 12 16 14 13 15 17 18 20
3 3 -0 -1 1 2 2 3 3 3 2 -0 -2 -1 -2 -2 -1 0 -0 -0 -2 -3 -2 -1 -1 2 2 2 1 2 2 3 4 5 7 10 13 13 13 13 14 16 17 21
1 1 1 -0 -1 -1 -0 0 -1 -2 -3 -2 -3 -3 -3 -2 -3 -3 -4 -4 -3 -3 -1 1 1 2 3 3 3 3 4 3 3 4 8 11 13 13 12 13 13 15 17 19
-4 -4 -2 -0 -1 -3 -4 -5 -4 -4 -4 -4 -4 -4 -1 -1 -2 -4 -4 -4 -5 -4 -2 1 5 4 2 3 6 7 7 7 8 10 11 12 11 12 12 12 13 14 16 18
-7 -6 -5 -6 -5 -7 -8 -6 -6 -7 -7 -5 -3 -3 -3 -2 -2 -4 -4 -5 -4 -2 -0 1 3 2 3 3 6 5 5 6 7 7 8 8 8 8 9 10 10 13 8 7
-12 -10 -10 -9 -9 -8 -9 -8 -9 -10 -7 -3 -3 -3 -3 -2 -3 -4 -5 -6 -3 -1 -0 1 2 3 3 3 3 3 4 4 4 5 6 6 6 6 7 6 5 4 3 2
-15 -16 -13 -12 -12 -12 -12 -12 -11 -8 -5 -3 -2 -2 -3 -4 -4 -4 -2 -4 -2 -1 -0 -1 2 3 2 3 2 2 2 2 3 3 4 5 4 3 2 3 2 1 2 2
-19 -18 -14 -14 -14 -13 -12 -13 -9 -6 -3 -3 -2 -2 -4 -4 -4 -6 -7 -2 -2 -1 -2 -1 1 2 3 -0 -0 -0 -0 -0 0 1 1 1 1 1 0 -0 0 0 0 -0
-25 -21 -20 -18 -18 -20 -17 -12 -6 -2 -2 -1 -1 -2 -3 -5 -4 -3 -2 -2 -2 -2 -2 -0 1 2 -1 -2 -2 -2 -2 -2 -1 -1 -0 0 -0 -0 -1 -1 -1 -1 -1 -1
-22 -22 -26 -21 -17 -11 -6 -3 -3 -2 -2 -2 -1 -1 -2 -1 -4 -4 -4 -4 -1 -3 -3 -1 2 -0 -5 -6 -6 -5 -4 -4 -3 -4 -3 -3 -3 -3 -3 -3 -3 -3 -4 -4
-23 -16 -11 -7 -5 -4 -3 -2 -4 -3 -2 -4 -2 -2 -2 -2 -1 -3 -4 -4 -4 -4 -5 -4 -4 -4 -4 -4 -5 -5 -5 -6 -6 -5 -5 -4 -4 -4 -4 -4 -5 -5 -5 -5
-11 -6 -6 -6 -5 -4 -3 -2 -3 -4 -2 -3 -3 -2 -2 -2 -2 -2 -3 -4 -5 -5 -5 -6 -5 -4 -4 -5 -5 -4 -5 -5 -4 -5 -6 -6 -6 -6 -5 -5 -6 -5 -5 -5
MSLP
1013.43 1013.73 1014.14 1013.91 1013.70 1013.23 1012.77 1012.83 1012.80 1012.06 1013.04 1014.39 1015.53 1016.20 1016.71 1016.30 1015.92 1015.29 1014.96 1014.04 1012.90 1012.52 1011.99 1011.38 1010.26 1010.13 1009.67 1009.52 1009.35 1009.07 1008.14 1007.28 1006.59 1005.32 1004.78 1004.59 1004.65 1004.56 1005.02 1005.46 1005.43 1006.65 1007.70 1007.72
1015.00 1014.54 1014.76 1014.26 1013.59 1012.85 1012.74 1012.33 1012.86 1013.56 1014.53 1016.26 1016.62 1016.88 1016.65 1016.38 1016.36 1016.12 1015.24 1014.17 1013.70 1013.16 1012.41 1011.94 1010.83 1010.19 1009.77 1009.53 1009.41 1009.11 1007.99 1007.62 1007.20 1005.91 1004.61 1004.70 1004.27 1003.85 1003.88 1004.75 1005.01 1005.80 1006.08 1006.68
1015.71 1015.94 1015.80 1014.60 1013.10 1013.05 1012.47 1012.27 1013.75 1014.63 1015.82 1016.55 1016.91 1016.66 1016.06 1015.87 1015.99 1015.56 1015.20 1015.16 1014.39 1013.43 1012.87 1012.85 1012.23 1011.67 1010.88 1010.26 1009.66 1009.01 1008.39 1007.88 1007.21 1006.18 1005.23 1004.70 1004.19 1003.75 1003.54 1003.73 1004.12 1004.61 1005.15 1005.50
1017.38 1017.88 1016.48 1013.67 1013.19 1013.45 1013.82 1014.82 1015.35 1016.01 1016.48 1016.73 1016.74 1016.60 1016.08 1015.77 1015.57 1015.34 1014.85 1014.50 1014.29 1013.70 1013.51 1013.40 1012.54 1011.75 1011.06 1010.42 1009.60 1008.88 1008.49 1008.16 1007.52 1006.69 1005.85 1004.81 1004.33 1003.75 1003.62 1003.56 1003.46 1003.73 1004.03 1004.37
1019.32 1018.85 1015.95 1014.77 1014.64 1014.86 1015.06 1015.93 1016.29 1016.50 1016.38 1016.37 1016.44 1016.26 1015.61 1015.29 1015.09 1014.91 1014.62 1014.11 1013.89 1013.71 1013.47 1013.05 1012.46 1011.56 1010.85 1009.95 1009.53 1008.89 1008.14 1007.57 1007.14 1006.63 1006.17 1005.44 1004.46 1003.93 1003.60 1003.72 1003.79 1003.54 1003.34 1003.40
1020.03 1019.49 1017.58 1015.95 1015.43 1015.16 1015.73 1016.20 1016.39 1016.42 1016.48 1016.50 1016.38 1016.05 1014.87 1014.63 1014.57 1014.43 1014.26 1014.24 1014.10 1013.85 1013.64 1013.31 1012.29 1011.42 1010.98 1010.51 1009.93 1009.17 1008.74 1008.47 1007.83 1007.10 1006.50 1005.82 1004.41 1004.00 1003.95 1003.92 1003.97 1003.87 1003.33 1003.57
1019.96 1019.77 1017.69 1016.36 1015.45 1015.32 1016.20 1016.48 1015.91 1016.01 1015.98 1015.99 1015.97 1015.31 1014.38 1014.24 1014.41 1014.30 1014.10 1013.98 1013.81 1013.56 1013.24 1012.60 1012.07 1011.68 1011.22 1010.57 1010.10 1009.35 1009.01 1008.51 1007.30 1006.27 1005.66 1004.83 1004.33 1003.96 1004.07 1003.86 1003.51 1003.50 1003.90 1004.01
1020.69 1019.66 1017.85 1015.68 1015.37 1015.64 1015.22 1015.10 1015.20 1015.24 1015.07 1015.12 1014.82 1014.53 1014.51 1014.35 1014.16 1014.24 1014.07 1013.76 1013.52 1013.35 1012.83 1012.19 1011.95 1011.88 1011.41 1010.74 1010.22 1009.70 1009.23 1008.01 1006.67 1006.05 1004.99 1004.71 1004.30 1004.31 1003.87 1004.05 1003.26 1003.23 1003.35 1004.08
1019.13 1016.95 1015.68 1015.13 1014.77 1014.25 1014.30 1014.70 1014.49 1014.58 1014.28 1014.29 1014.45 1014.41 1014.41 1014.38 1014.15 1014.02 1013.97 1013.65 1013.30 1013.26 1012.63 1011.79 1011.68 1011.69 1011.10 1010.34 1010.36 1009.54 1008.50 1007.20 1006.37 1005.79 1004.64 1004.34 1004.12 1003.61 1003.74 1003.31 1003.30 1002.87 1003.20 1003.73
1017.10 1015.19 1014.87 1014.11 1013.65 1013.65 1013.56 1013.72 1013.54 1013.70 1014.03 1014.32 1014.47 1014.48 1014.61 1014.52 1014.18 1013.91 1013.55 1013.40 1013.20 1012.82 1012.22 1011.31 1010.90 1010.79 1010.59 1010.15 1009.91 1009.34 1008.43 1007.40 1006.40 1005.65 1004.37 1003.49 1003.15 1002.78 1002.30 1002.28 1002.14 1002.29 1001.97 1002.28
1014.93 1013.99 1013.84 1013.29 1012.97 1012.98 1013.07 1013.28 1013.72 1014.04 1014.39 1014.78 1015.14 1014.97 1015.05 1014.59 1014.20 1013.81 1013.42 1012.98 1013.01 1012.56 1011.94 1010.98 1010.62 1010.19 1010.31 1010.13 1009.87 1009.07 1008.30 1007.21 1006.10 1005.06 1003.82 1002.53 1001.72 1000.99 1000.62 1000.33 1000.77 1000.73 1000.01 1000.50
1013.34 1012.82 1012.91 1012.58 1012.31 1012.92 1013.49 1014.01 1014.62 1014.99 1015.10 1015.35 1015.53 1015.36 1015.34 1014.67 1014.40 1014.11 1013.51 1012.95 1012.64 1012.26 1011.96 1011.06 1010.60 1009.84 1009.97 1010.01 1009.73 1008.83 1007.53 1006.49 1005.55 1004.45 1003.25 1002.07 1000.58 999.58 999.05 999.30 999.70 999.26 999.38 998.59
1012.52 1012.32 1012.51 1012.55 1013.28 1014.07 1014.63 1015.19 1015.50 1015.86 1016.15 1016.05 1015.46 1015.90 1015.71 1015.22 1014.66 1014.25 1013.86 1013.49 1013.05 1012.36 1011.76 1011.31 1010.65 1009.73 1009.54 1009.29 1008.85 1007.91 1006.85 1005.61 1004.74 1003.83 1002.71 1001.37 999.85 999.03 998.56 998.43 998.25 998.21 998.26 997.82
1012.98 1013.29 1013.19 1013.86 1014.66 1015.43 1015.83 1016.20 1016.40 1016.53 1016.63 1016.60 1016.33 1016.11 1016.24 1015.64 1014.64 1014.60 1014.09 1013.72 1013.20 1012.42 1011.59 1010.98 1009.97 1008.97 1008.76 1008.20 1007.45 1006.65 1005.82 1004.88 1003.94 1002.67 1001.50 1000.24 999.03 998.04 998.07 997.73 997.53 997.01 997.10 997.02
1014.73 1015.11 1015.48 1015.95 1016.33 1016.72 1017.06 1017.13 1016.92 1016.89 1016.90 1016.73 1016.96 1016.72 1016.47 1016.05 1015.41 1014.73 1014.09 1013.36 1012.40 1011.62 1010.76 1009.95 1008.98 1007.95 1007.49 1006.80 1006.02 1005.22 1004.58 1003.71 1002.88 1001.77 1000.57 999.57 998.57 997.42 996.97 997.00 996.79 996.49 996.95 996.71
1016.44 1016.69 1016.98 1017.34 1017.63 1017.96 1018.22 1018.28 1018.23 1017.59 1017.48 1017.23 1017.12 1016.77 1016.57 1016.28 1015.53 1014.67 1013.79 1012.82 1011.78 1010.45 1009.68 1008.90 1008.03 1006.95 1006.23 1005.42 1004.45 1003.54 1002.76 1002.11 1001.37 1000.41 999.58 998.70 997.69 996.49 996.22 996.30 996.20 996.35 996.11 996.22
1018.09 1018.42 1018.65 1018.76 1018.83 1018.91 1018.99 1019.06 1018.96 1018.61 1018.29 1018.07 1017.42 1016.83 1016.32 1015.57 1014.79 1013.96 1013.33 1012.58 1011.77 1010.54 1009.36 1008.19 1006.91 1005.93 1004.99 1004.10 1003.16 1002.13 1001.20 1000.40 999.74 998.89 997.99 997.17 996.34 995.80 995.73 995.86 995.81 995.78 995.67 995.77
1019.79 1019.94 1020.09 1020.06 1019.86 1019.60 1019.43 1019.48 1019.36 1019.08 1018.71 1018.12 1017.48 1016.82 1016.09 1015.20 1014.39 1013.52 1012.75 1011.85 1010.80 1009.59 1008.54 1007.32 1006.15 1004.90 1003.73 1002.68 1001.69 1000.65 999.62 998.70 998.05 997.32 996.53 995.74 995.11 995.05 995.15 995.36 995.46 995.56 995.62 995.74
1020.90 1020.83 1020.70 1020.57 1020.53 1020.40 1020.07 1019.71 1019.41 1019.01 1018.58 1017.94 1017.21 1016.34 1015.67 1014.91 1014.16 1013.38 1012.36 1011.28 1010.17 1008.85 1007.54 1006.55 1005.18 1003.96 1002.86 1001.74 1000.59 999.45 998.31 997.13 996.29 995.53 995.24 994.94 994.91 994.96 995.12 995.32 995.51 995.67 995.81 996.07
1021.52 1021.47 1021.26 1021.00 1020.89 1020.74 1020.22 1019.87 1019.36 1018.76 1018.21 1017.53 1016.71 1015.94 1015.17 1014.47 1013.78 1012.93 1012.02 1011.02 1010.09 1009.16 1007.75 1006.22 1004.79 1003.58 1002.52 1001.43 1000.32 999.27 998.19 997.11 996.23 995.62 995.27 995.20 995.23 995.32 995.47 995.70 995.91 996.28 996.84 997.43
1022.13 1021.91 1021.55 1021.16 1020.77 1020.61 1020.23 1019.66 1019.10 1018.38 1017.55 1016.98 1016.32 1015.63 1014.94 1014.18 1013.49 1012.77 1011.71 1010.66 1009.57 1008.77 1007.53 1006.19 1004.94 1003.63 1002.58 1001.58 1000.57 999.73 998.82 997.97 997.24 996.73 996.42 996.31 996.29 996.34 996.51 996.78 997.18 997.69 998.32 998.70
1022.59 1022.24 1021.66 1021.17 1020.70 1020.16 1019.64 1019.15 1018.64 1017.81 1017.03 1016.36 1015.82 1015.25 1014.72 1014.00 1013.27 1012.58 1012.05 1011.42 1010.02 1008.93 1007.64 1006.46 1005.18 1004.11 1003.15 1002.28 1001.41 1000.53 999.81 999.18 998.64 998.15 997.83 997.72 997.74 997.90 998.14 998.38 998.67 999.09 999.57 1000.20
1022.56 1022.00 1021.43 1020.86 1020.35 1019.69 1019.05 1018.44 1017.63 1016.92 1016.31 1015.77 1015.25 1014.91 1014.65 1014.19 1013.61 1012.84 1011.73 1010.96 1010.32 1009.19 1008.18 1007.07 1005.88 1004.77 1003.83 1003.14 1002.54 1001.96 1001.30 1000.62 1000.12 999.83 999.64 999.51 999.45 999.44 999.56 999.83 1000.23 1000.62 1001.11 1001.69
1022.33 1021.63 1021.01 1020.18 1019.59 1018.99 1018.41 1017.34 1016.75 1016.09 1015.62 1015.18 1014.90 1014.73 1014.46 1013.86 1013.21 1012.98 1012.62 1011.78 1010.87 1009.82 1008.84 1007.85 1006.83 1005.88 1005.21 1004.60 1003.99 1003.41 1002.88 1002.41 1001.98 1001.64 1001.35 1001.13 1001.16 1001.23 1001.39 1001.66 1001.89 1002.30 1002.69 1003.15
1021.79 1021.07 1020.23 1019.48 1018.87 1018.09 1017.30 1016.72 1016.13 1015.58 1015.21 1014.92 1014.69 1014.51 1014.26 1013.97 1013.77 1013.16 1012.77 1012.05 1011.23 1010.43 1009.63 1008.79 1007.89 1007.14 1006.63 1006.09 1005.52 1005.00 1004.61 1004.28 1003.91 1003.51 1003.29 1003.17 1003.10 1003.11 1003.18 1003.36 1003.66 1004.04 1004.42 1004.85
1021.00 1020.33 1019.58 1018.81 1018.16 1017.55 1016.87 1016.34 1015.94 1015.55 1015.22 1014.90 1014.63 1014.53 1014.25 1013.93 1013.62 1013.33 1012.94 1012.37 1011.75 1011.09 1010.47 1009.81 1009.19 1008.51 1007.89 1007.31 1006.85 1006.49 1006.18 1005.82 1005.47 1005.24 1005.07 1004.94 1004.89 1004.88 1004.98 1005.15 1005.33 1005.56 1005.87 1006.21
1020.52 1019.90 1019.20 1018.50 1017.96 1017.48 1016.89 1016.35 1015.99 1015.66 1015.32 1015.01 1014.89 1014.72 1014.47 1014.18 1013.87 1013.56 1013.20 1012.75 1012.24 1011.74 1011.27 1010.76 1010.17 1009.66 1009.19 1008.74 1008.26 1007.87 1007.57 1007.32 1007.10 1006.83 1006.61 1006.48 1006.41 1006.42 1006.43 1006.52 1006.64 1006.76 1006.89 1007.05
Wind_Speed
18 11 7 7 13 18 16 16 12 19 19 5 10 14 14 12 16 14 17 18 17 17 15 16 16 16 16 15 15 14 14 17 15 10 8 10 11 13 12 14 16 15 14 15
12 18 13 19 18 18 21 20 15 19 8 2 2 7 9 8 10 15 15 14 14 16 14 18 19 17 17 16 17 16 15 14 16 14 9 9 11 11 11 14 14 14 16 16
18 12 8 13 22 21 18 17 2 8 4 2 4 8 11 11 8 12 12 15 12 15 15 15 16 14 16 15 13 15 15 14 15 16 15 12 8 7 11 14 13 15 16 16
13 7 20 8 6 9 11 8 6 5 4 7 7 5 10 5 5 9 11 11 11 11 12 13 15 14 14 14 15 13 13 12 14 16 15 13 7 7 6 8 13 14 15 16
5 9 10 8 3 3 2 6 5 5 7 6 8 6 3 4 4 8 12 8 9 10 12 13 14 15 14 15 15 15 15 15 16 15 16 13 7 7 5 6 9 12 12 14
2 5 7 1 3 1 5 5 7 7 8 8 4 5 9 8 5 8 10 8 10 10 7 9 13 12 13 15 15 15 15 16 14 12 12 13 8 5 3 5 8 7 8 10
6 4 9 5 6 1 7 7 6 5 9 8 6 7 10 9 8 7 8 11 10 10 10 12 10 10 14 13 15 14 15 17 18 12 11 10 9 2 4 4 3 3 3 5
3 3 8 4 4 5 8 4 4 5 12 11 9 10 9 11 11 9 12 14 13 12 13 14 11 10 14 16 14 13 15 17 16 18 10 6 7 6 4 6 7 6 7 4
9 8 4 4 9 12 5 7 8 9 12 8 8 11 10 11 14 13 14 14 12 10 15 17 13 9 14 15 13 16 18 18 17 17 15 10 9 9 6 7 6 7 8 8
15 15 17 17 17 6 8 14 13 8 6 5 10 10 11 12 13 14 15 14 13 13 16 19 16 15 14 15 15 15 18 19 17 16 16 12 9 9 8 8 9 9 10 10
14 17 14 16 16 16 15 10 3 3 2 3 5 12 11 13 16 15 16 16 13 14 16 21 20 19 16 16 15 17 18 17 17 14 15 15 12 10 10 11 12 10 10 9
14 19 15 16 17 3 1 1 3 4 6 6 7 11 12 16 15 15 17 17 17 19 19 22 21 21 18 16 16 18 19 15 13 12 12 13 12 10 20 23 22 26 22 15
19 18 16 13 5 6 2 3 4 5 7 12 15 10 12 16 16 18 18 19 19 21 21 21 21 23 19 18 17 18 19 18 14 14 12 12 12 10 10 9 26 25 27 24
2 3 11 3 0 6 5 6 7 8 8 9 11 11 11 15 20 18 18 18 19 21 22 21 22 23 19 19 18 19 18 23 16 14 13 13 13 10 8 8 8 9 22 21
5 5 4 4 2 5 6 8 12 11 10 11 9 13 12 16 18 20 20 20 21 21 20 20 20 21 19 19 19 19 16 14 13 13 12 14 12 10 9 9 8 8 6 15
4 3 2 3 6 5 7 6 9 13 12 14 15 15 16 16 18 19 19 18 19 19 21 20 20 21 19 19 19 16 15 21 19 13 13 13 12 10 7 7 8 8 8 9
2 2 5 2 7 10 8 8 10 12 14 14 16 17 17 17 17 16 17 17 17 20 20 20 20 18 18 17 17 13 12 13 18 13 12 11 11 9 8 7 8 8 8 8
2 3 4 6 9 10 10 9 11 12 12 15 15 16 16 16 17 17 17 17 17 17 16 16 16 17 17 16 15 13 12 12 12 12 11 11 9 6 6 7 7 7 6 7
2 5 7 9 9 10 10 12 12 12 12 13 14 15 15 15 15 15 16 15 15 16 16 20 21 19 15 16 16 11 10 10 10 10 10 7 4 4 5 5 5 5 6 7
5 5 7 8 8 8 12 11 12 12 12 12 13 13 14 14 14 14 14 15 13 12 19 20 18 14 14 15 16 9 8 7 5 3 2 2 2 2 2 3 4 5 7 8
6 7 8 9 10 9 10 10 10 11 12 11 11 12 13 14 13 12 13 11 15 17 18 19 14 11 9 12 10 8 8 7 6 6 5 5 5 5 6 7 8 7 8 8
5 6 8 8 8 10 9 8 9 11 11 10 10 9 10 12 12 11 9 8 12 20 13 11 11 15 12 15 9 9 9 9 8 7 7 7 7 7 7 7 7 7 8 8
6 5 8 8 8 9 9 8 9 7 9 8 8 8 8 8 7 8 12 13 11 16 11 11 17 19 17 10 9 10 10 10 9 8 8 8 7 7 7 7 7 7 7 8
4 6 6 6 6 5 6 5 5 7 6 6 5 5 6 6 6 2 7 12 15 15 11 13 15 18 15 9 10 10 10 10 9 8 8 10 8 7 8 7 8 7 8 10
6 6 4 5 5 4 5 6 6 5 5 4 4 4 5 3 2 6 7 8 12 11 9 14 17 16 9 9 9 9 9 9 9 8 9 9 8 8 8 8 8 8 8 8
4 4 4 4 5 5 5 4 4 4 4 4 2 4 4 4 4 5 6 8 7 10 8 8 9 9 9 9 9 9 8 8 8 8 8 8 8 8 8 8 7 7 7 6
4 6 5 5 4 5 5 5 4 4 4 2 3 4 4 5 5 6 7 6 7 7 7 8 8 10 9 9 9 9 8 8 11 8 8 8 7 7 7 6 6 5 5 5
Wind_Direction
268 289 317 298 290 286 263 265 264 288 285 28 12 353 352 358 358 0 352 347 352 350 342 344 348 347 349 344 343 339 341 339 325 289 260 239 228 217 204 204 198 199 200 198
297 293 292 281 270 260 266 278 262 258 260 17 316 326 332 335 346 343 342 338 340 340 342 338 340 339 340 341 338 333 342 343 335 324 298 264 244 224 200 204 200 196 200 194
269 285 298 277 251 252 254 263 270 250 112 216 279 312 328 322 324 341 332 316 331 331 333 330 327 329 329 328 328 331 333 333 338 336 325 297 258 228 210 205 195 201 201 195
275 321 268 253 67 73 95 97 99 101 199 218 242 281 295 184 320 318 318 310 316 318 320 315 318 321 323 325 324 326 325 324 334 334 321 304 278 244 241 213 204 201 201 199
226 213 282 293 40 93 185 173 176 208 248 251 268 275 215 335 292 299 300 300 310 311 307 314 314 318 324 327 323 323 324 323 328 331 319 306 269 260 239 227 222 218 207 197
116 221 229 174 251 253 116 262 222 202 232 226 249 309 305 312 299 294 292 296 298 294 280 287 296 313 322 315 317 319 326 320 305 307 297 290 273 256 240 225 233 222 211 204
238 250 288 237 259 127 92 243 227 198 224 222 209 213 277 301 289 280 288 298 296 299 291 291 286 312 304 305 305 312 315 310 304 297 292 289 286 250 242 215 172 189 200 209
79 32 292 215 356 147 220 271 224 260 246 223 238 258 264 283 292 286 294 296 297 299 299 298 301 304 295 293 304 307 299 299 308 308 290 272 247 254 222 218 188 177 168 183
185 216 243 223 231 275 203 227 258 241 241 227 259 268 270 279 284 287 287 286 290 284 288 290 290 281 284 291 306 306 305 304 305 302 298 259 245 231 221 205 214 189 190 199
270 261 255 265 272 257 268 267 273 240 244 231 252 268 281 285 287 291 289 285 290 289 284 287 291 292 286 302 309 302 298 297 298 294 292 270 240 231 220 214 207 209 196 201
252 261 270 266 264 264 266 278 271 284 251 269 287 281 282 282 284 286 289 293 293 285 287 287 296 293 299 302 305 295 291 288 287 285 282 278 241 230 228 229 218 218 208 199
250 261 259 271 277 47 249 290 35 336 316 290 277 279 286 282 286 291 291 294 296 293 292 293 296 295 297 297 297 290 285 284 281 281 280 279 265 250 241 239 238 236 229 198
249 259 271 271 105 56 26 350 324 307 288 290 293 293 294 288 291 294 294 296 295 294 295 296 294 292 297 293 286 279 277 282 281 274 270 270 268 242 249 242 244 239 237 222
347 356 272 94 69 353 344 323 306 289 278 273 288 300 295 297 299 296 295 297 296 293 292 291 288 286 290 286 281 276 274 275 273 272 268 266 265 245 232 232 236 234 231 230
47 29 360 344 353 341 341 338 323 315 314 309 306 300 305 299 298 300 301 298 293 290 289 287 288 291 290 286 281 278 276 272 272 271 271 273 280 252 220 223 224 228 217 225
339 331 10 342 321 336 337 318 300 306 317 310 307 308 306 300 296 296 297 300 304 304 301 298 294 291 291 286 281 277 273 268 261 266 264 259 260 243 217 216 220 225 205 212
28 334 344 322 330 322 316 305 296 297 302 303 303 307 306 304 301 307 311 309 304 300 300 297 296 296 294 289 284 280 277 273 262 260 259 255 255 222 210 208 214 217 216 204
59 298 283 277 295 303 302 299 296 293 295 298 300 302 303 308 310 312 308 307 305 303 303 301 300 297 296 295 290 283 274 264 258 254 259 254 234 210 205 208 210 208 201 199
322 302 304 300 303 298 296 296 294 294 296 297 300 300 305 302 307 304 307 312 313 318 324 318 309 315 305 303 302 298 295 284 269 256 244 224 208 192 196 198 198 184 177 182
305 295 289 286 284 278 286 284 287 290 289 291 295 303 304 308 312 312 313 314 314 321 321 320 323 319 322 319 320 312 311 318 329 354 19 56 84 100 96 108 122 107 83 90
289 289 290 291 288 279 269 278 284 286 290 292 298 300 306 310 314 319 322 327 331 328 322 326 329 332 331 332 339 339 345 354 8 16 32 46 58 62 65 63 74 82 88 88
272 274 281 281 283 286 276 270 269 275 282 293 294 302 313 315 324 326 325 320 326 331 335 332 338 350 352 351 350 357 4 10 15 22 32 40 50 57 61 63 71 74 79 84
277 273 289 284 278 279 287 277 269 268 287 291 301 316 316 309 312 333 336 337 336 338 341 342 350 3 5 6 6 7 9 14 21 27 31 34 39 49 60 65 66 72 79 84
272 276 266 263 274 279 284 278 286 293 287 294 299 311 311 322 329 325 321 321 333 344 344 352 2 9 13 10 12 15 17 16 19 24 33 43 44 47 50 52 64 70 77 80
271 273 266 289 292 282 294 310 310 311 315 319 317 324 318 317 301 315 324 327 337 348 350 354 4 9 14 14 17 21 22 23 24 31 35 38 42 48 52 57 62 66 69 73
297 290 298 309 321 324 321 317 318 321 326 339 332 334 329 332 336 335 329 337 344 351 358 357 3 6 10 17 22 25 27 27 33 38 42 47 50 54 56 59 61 65 70 75
325 352 346 345 345 335 331 338 338 337 335 353 326 346 347 347 350 353 351 352 355 358 1 0 7 12 13 17 22 26 27 31 33 33 34 39 43 47 51 56 60 63 64 69